Theta_e
310 311 311 311 311 311 311 311 312 312 312 311 310 310 310 311 311 310 311 311 311 310 310 310 310 310 310 310 310 311 311 312 312 314 315 315 317 315 314 313 313 313 313 313 313 313 314 314 315 316 317 316 316 317 317 317 316 319 329 330 322 322 323 320 320 316 317 321 313 312 314 314 316 314 314 314 314 314 314 314 314 315 315 315 315 315 315 315
311 311 311 311 311 311 311 311 312 312 311 311 311 310 310 310 310 310 310 310 310 310 310 310 310 310 310 310 310 311 311 312 312 314 315 314 315 315 313 314 314 315 314 314 313 313 314 313 315 316 316 316 316 316 316 317 315 320 329 329 325 325 319 314 315 311 313 316 312 312 313 313 315 314 314 315 314 314 315 315 314 315 315 315 315 315 315 315
310 311 310 310 311 311 311 311 312 311 311 311 310 310 309 310 310 310 310 310 310 310 310 310 310 310 310 310 310 311 312 312 313 314 315 313 314 314 314 315 315 316 316 316 314 313 314 314 316 316 316 316 316 316 315 317 315 314 322 329 326 319 313 311 312 312 314 314 312 313 313 314 314 314 314 314 314 313 315 316 314 314 315 315 315 315 315 314
310 310 310 310 311 311 311 311 312 311 311 311 310 310 309 309 309 309 309 310 310 310 310 310 310 310 310 310 310 311 312 314 316 314 314 313 314 314 314 315 316 317 317 317 315 314 314 315 316 316 317 316 315 316 314 315 315 313 319 326 318 311 313 314 313 313 314 313 313 313 313 314 314 314 314 313 314 314 314 315 315 315 315 315 315 315 315 315
310 310 310 310 311 311 311 311 311 311 310 310 310 309 308 308 308 308 309 309 310 310 310 310 310 310 310 310 311 311 314 318 317 314 313 314 314 313 314 316 317 318 317 318 317 315 315 316 317 316 317 316 316 317 315 313 315 314 314 315 311 310 315 315 313 314 314 314 313 313 314 314 314 314 314 313 316 317 314 314 315 315 315 315 315 315 315 315
310 310 310 310 311 311 311 311 311 310 310 310 309 308 307 307 307 308 309 309 310 309 310 310 310 310 310 310 310 311 315 318 316 313 314 314 313 313 314 315 317 317 317 318 318 316 316 316 317 317 316 314 314 317 316 313 314 318 315 310 310 311 314 314 314 315 314 314 314 313 314 314 314 314 314 313 315 316 315 315 315 315 315 314 315 315 315 315
310 310 310 311 311 311 311 311 311 310 310 309 308 307 307 307 307 308 309 309 309 309 310 310 310 310 310 310 310 311 313 314 314 313 314 314 313 313 313 314 316 316 316 317 318 318 317 317 317 315 315 314 314 314 315 314 314 320 319 312 312 312 313 314 314 314 314 314 315 314 315 314 314 315 314 313 314 315 314 315 315 315 316 315 314 315 314 314
310 310 311 311 311 311 311 310 310 309 308 307 307 306 306 307 307 308 309 309 309 309 309 310 310 310 310 310 310 311 312 313 314 314 313 313 313 313 313 314 315 316 316 316 317 318 317 317 317 316 315 314 314 314 314 315 315 319 319 313 313 314 314 314 314 314 314 314 314 314 314 314 314 314 312 314 315 315 315 315 315 316 315 315 315 314 314 314
310 310 310 310 310 310 309 309 308 307 307 306 306 306 306 307 307 308 308 309 309 309 309 310 310 309 310 310 310 312 312 313 314 315 313 313 313 313 313 314 316 316 316 317 317 317 317 316 316 317 315 314 314 313 313 316 316 314 315 314 314 315 314 314 314 314 314 314 314 314 314 314 313 313 314 315 316 315 316 315 315 316 315 315 315 314 315 314
309 309 309 309 308 308 308 307 307 306 306 306 306 306 307 307 307 308 308 309 309 309 309 310 310 310 310 310 311 313 313 313 315 315 314 313 313 313 315 316 317 317 316 317 317 317 317 316 317 316 316 315 314 313 313 316 315 313 314 314 314 315 315 315 315 314 314 314 314 315 315 314 312 313 316 316 315 315 315 315 315 315 315 315 315 314 314 314
307 307 307 307 306 306 306 306 306 306 306 306 306 306 307 307 307 308 308 308 308 309 309 309 309 310 310 310 312 313 314 316 315 315 316 314 314 314 316 317 316 317 316 317 317 317 316 316 317 316 316 316 314 314 313 313 314 313 314 316 315 314 315 315 315 314 314 314 314 314 313 312 312 313 316 315 316 316 314 315 315 315 315 314 314 314 314 314
306 306 306 306 306 306 306 306 306 306 306 307 307 307 307 307 308 308 308 308 309 309 309 309 309 309 309 310 311 312 315 317 317 316 317 315 314 315 316 317 317 316 316 317 317 317 316 316 316 316 317 315 315 314 314 314 314 314 315 318 320 320 320 315 313 313 313 315 314 313 314 316 315 314 315 315 315 316 314 314 315 314 315 314 314 314 314 314
306 306 306 306 306 306 306 306 307 307 307 307 307 307 307 308 308 308 308 308 308 309 309 309 309 309 310 310 311 311 312 315 317 317 317 317 315 316 317 317 317 316 317 316 317 317 316 317 316 317 315 314 315 314 314 313 313 317 314 317 324 325 326 315 310 312 312 314 313 313 319 327 325 316 313 315 314 315 314 314 314 314 314 314 314 314 314 313
307 307 306 306 306 306 306 306 307 307 307 307 307 307 308 308 308 308 308 308 308 309 308 309 309 309 309 311 312 312 311 313 317 318 317 317 316 316 317 317 317 316 316 316 316 317 317 317 317 316 315 315 315 313 320 318 317 320 313 319 326 320 327 321 309 312 314 313 312 314 319 325 327 317 313 314 314 314 314 315 314 314 314 314 314 314 313 313
309 309 309 308 308 308 308 307 307 307 307 307 307 307 307 308 308 308 308 308 308 308 308 308 309 310 311 311 311 312 311 311 315 318 318 318 317 317 317 317 317 316 317 316 316 316 317 317 316 316 314 315 315 317 328 326 326 327 316 324 327 316 330 329 310 310 316 314 311 314 320 321 321 315 313 314 314 314 314 314 314 314 314 313 314 313 313 313
310 310 310 310 310 310 310 309 309 309 309 308 308 308 308 308 308 307 308 308 308 308 308 309 309 310 311 312 311 312 312 311 313 315 317 318 317 317 317 317 316 316 316 316 316 316 317 317 315 315 313 315 321 328 333 326 328 330 318 322 328 319 325 326 313 309 311 312 311 314 320 324 321 313 311 313 312 313 313 313 314 314 314 313 313 313 312 312
311 311 310 310 310 310 310 310 310 310 310 310 310 309 309 308 308 307 307 307 307 308 308 310 311 311 312 312 313 314 313 312 312 313 316 317 317 317 317 317 316 316 316 316 317 316 316 316 315 315 315 315 321 329 329 322 326 328 319 320 327 323 321 324 324 313 307 312 314 314 315 321 321 313 311 313 312 312 311 313 314 313 314 313 313 313 313 312
311 310 310 310 310 310 310 310 310 309 309 309 309 310 310 310 309 308 308 307 308 308 309 311 312 312 313 312 313 314 314 314 313 313 316 317 317 318 317 317 316 316 316 316 316 316 315 315 316 319 320 318 319 323 323 322 326 330 325 323 323 322 319 322 327 316 310 313 315 315 315 316 317 313 311 312 312 312 312 314 314 313 313 313 313 312 313 312
310 311 310 310 310 309 309 309 309 309 309 308 308 309 309 309 309 308 308 308 309 311 312 312 311 312 314 312 312 313 314 314 314 314 315 317 317 318 317 317 316 316 316 317 316 315 315 315 318 322 322 321 320 320 321 321 324 329 331 331 327 324 322 324 327 318 311 313 315 315 316 315 316 315 312 311 312 311 312 313 312 312 312 312 313 313 313 313
310 310 310 310 310 309 309 309 308 308 308 308 308 308 309 309 309 310 309 308 309 311 313 313 312 311 314 314 312 313 314 314 315 315 316 317 317 317 317 315 316 315 315 320 319 313 314 319 323 325 323 321 319 318 320 321 322 324 326 329 327 324 325 327 327 317 309 313 320 318 315 315 315 315 313 310 310 310 310 310 310 312 312 313 313 313 313 313
311 310 310 310 309 309 309 308 308 308 308 308 308 308 308 309 310 311 310 309 309 309 310 312 313 312 312 314 314 314 314 315 316 316 316 317 317 317 316 315 317 318 315 316 316 313 316 320 323 325 320 317 318 318 319 321 320 322 323 323 324 324 325 326 323 318 311 313 323 321 317 316 314 314 311 309 309 309 309 309 310 313 313 313 314 313 313 313
311 310 310 310 309 309 308 308 308 308 308 308 308 307 308 308 310 312 312 312 311 310 309 309 311 313 312 313 314 314 315 316 316 317 317 316 317 317 316 317 320 321 316 314 316 318 319 321 322 318 314 314 318 317 316 318 318 322 323 321 323 324 323 324 323 318 313 314 323 324 319 317 315 314 311 308 309 310 312 312 313 314 313 313 314 313 313 312
310 310 310 310 310 308 308 308 308 308 308 308 308 308 308 308 309 311 312 313 313 312 311 310 310 310 312 312 313 314 315 317 317 317 317 316 317 316 315 317 321 321 318 318 322 322 323 326 320 312 312 317 320 317 316 317 317 320 323 320 323 323 322 325 324 319 316 315 319 323 319 316 316 316 314 312 311 312 313 313 313 313 313 313 314 314 313 313
311 310 310 310 310 309 309 308 308 308 307 307 308 307 308 310 309 309 311 312 314 313 311 311 311 309 310 311 312 314 315 316 316 316 317 316 316 316 314 315 319 320 319 319 321 321 323 322 313 310 315 318 320 319 318 319 320 321 321 319 321 323 323 324 323 321 321 319 317 321 321 321 321 320 319 315 312 312 313 313 313 313 314 313 312 312 312 312
314 312 310 310 310 310 309 308 308 308 307 308 308 307 307 309 310 310 311 313 314 314 312 311 313 312 310 311 312 314 315 316 316 316 317 316 316 316 315 314 317 321 320 318 317 319 320 315 312 316 317 317 320 321 321 322 322 323 323 320 319 322 323 322 322 320 325 328 319 317 323 331 329 323 322 321 319 318 315 310 312 315 315 313 312 312 311 311
318 316 313 310 310 310 310 309 309 308 307 308 307 307 308 310 312 311 312 316 316 314 313 312 313 314 312 312 313 313 315 316 316 317 316 316 316 315 316 315 314 318 318 316 316 318 318 312 315 324 320 318 320 319 322 321 320 324 324 321 318 319 320 321 321 321 327 330 318 315 325 329 325 322 325 327 328 329 322 313 312 314 314 313 313 313 311 311
319 318 316 313 310 309 310 310 310 308 308 309 307 307 309 311 313 310 310 316 314 312 315 314 312 314 313 313 314 313 315 316 315 317 316 316 316 315 318 317 315 315 313 315 318 317 317 315 316 322 323 321 320 320 322 318 321 327 321 319 319 318 319 320 320 322 325 324 318 319 325 325 323 322 322 324 325 327 325 320 316 313 314 313 313 313 312 312
319 319 318 316 312 309 310 310 310 309 308 310 308 308 311 312 311 310 311 313 311 312 316 314 312 313 313 313 314 313 313 314 316 317 316 316 316 315 318 318 317 319 313 314 319 315 316 321 319 319 321 321 322 325 323 317 323 325 315 315 319 319 321 321 321 322 321 321 321 321 321 323 326 322 319 319 321 323 324 324 320 315 314 313 313 314 313 313
320 319 319 318 314 311 311 310 311 310 309 310 309 309 313 311 309 312 312 310 312 315 314 314 314 314 314 314 313 313 313 313 315 317 316 316 316 315 317 315 314 318 314 313 320 317 314 317 317 318 321 322 323 322 317 318 322 316 310 315 318 318 321 323 324 324 323 323 324 323 322 324 327 325 322 319 320 326 325 322 319 313 314 314 314 314 313 313
321 319 319 317 314 312 311 311 310 310 310 310 309 311 313 311 310 311 310 310 313 316 312 313 315 314 314 315 314 314 313 314 314 315 315 315 315 314 316 315 314 319 319 315 319 319 313 311 312 316 319 317 318 314 309 314 315 311 315 322 323 323 324 325 324 322 325 326 325 325 324 324 326 325 325 322 322 327 324 322 322 316 314 315 314 313 312 312
321 320 319 318 316 313 311 311 310 309 311 310 311 314 314 315 316 312 310 310 310 315 313 313 315 314 314 315 315 315 315 314 313 314 316 315 315 315 315 316 316 321 322 319 320 318 314 315 314 314 314 312 316 315 310 309 309 314 327 329 325 327 325 325 325 323 328 327 322 321 319 321 325 323 323 323 322 323 321 323 329 323 316 314 314 314 312 311
321 320 319 318 317 315 312 311 309 310 312 310 313 316 314 316 317 314 312 311 310 316 317 317 316 315 315 316 316 316 316 316 313 315 317 316 316 316 316 318 318 320 321 320 320 319 318 320 316 312 312 312 320 322 315 312 312 318 329 327 326 329 325 325 326 323 325 323 316 316 317 319 322 322 322 322 321 323 318 315 318 317 314 314 314 313 312 311
321 320 319 318 318 316 314 311 309 311 313 313 315 316 315 316 315 313 313 312 313 316 317 319 317 316 316 317 317 316 316 318 315 315 317 316 317 317 316 319 318 319 323 320 318 320 322 320 315 315 315 314 319 323 321 319 317 319 324 325 327 328 326 329 326 319 322 321 313 312 317 321 322 323 324 321 319 319 315 311 312 312 313 315 314 312 312 311
320 320 318 318 318 317 316 313 310 312 314 314 315 316 316 315 313 313 313 310 315 317 317 319 316 315 316 318 319 316 316 318 316 316 317 317 318 318 318 319 316 320 325 321 319 321 322 320 318 319 318 316 317 319 322 323 317 317 321 323 325 326 328 331 329 326 327 324 315 312 318 324 326 326 322 315 311 312 312 312 312 311 313 314 312 311 312 312
319 320 319 317 317 316 316 314 311 313 314 314 316 317 316 314 311 312 312 312 320 321 318 317 316 317 318 319 319 316 316 318 315 316 318 317 319 318 318 318 315 319 323 319 320 320 320 323 322 316 314 315 317 316 317 321 319 317 319 323 324 325 327 326 322 321 322 323 320 316 319 322 323 322 316 311 311 311 310 309 309 311 311 311 310 311 312 313
318 319 319 317 317 316 317 315 312 313 315 315 317 317 316 314 312 313 313 314 321 322 318 318 319 320 318 318 319 316 315 318 317 317 318 317 319 318 318 318 315 316 318 316 321 322 322 325 319 312 313 314 313 314 314 317 321 318 318 322 320 318 322 324 318 314 315 322 323 320 321 321 321 321 316 314 317 315 312 309 307 309 310 308 309 310 311 313
319 319 318 317 317 317 317 315 313 314 315 316 317 317 316 315 313 315 316 314 317 319 318 319 320 321 319 318 319 318 316 318 317 318 319 317 319 319 317 318 316 315 316 316 321 323 323 325 317 313 317 313 308 312 312 310 316 321 321 321 316 315 321 326 324 320 320 323 323 321 322 321 322 323 319 317 318 318 318 314 308 306 307 306 308 310 311 312
318 317 317 318 318 317 317 316 314 314 316 316 316 316 316 315 312 313 315 315 316 319 318 317 316 319 320 319 319 318 317 319 318 317 319 318 319 319 318 318 317 314 314 315 319 321 320 323 319 312 315 313 309 314 316 311 311 317 320 318 318 324 325 323 325 326 325 325 325 322 320 319 319 320 320 320 321 323 321 318 314 310 306 305 308 310 311 311
316 314 314 316 317 317 317 316 314 314 316 316 315 315 315 316 313 311 314 315 316 317 316 316 315 317 320 319 319 318 316 318 318 317 319 318 318 318 316 318 318 314 313 314 318 321 319 320 322 312 310 313 313 316 320 317 312 312 314 314 317 323 323 323 324 324 326 327 327 325 322 322 321 321 322 320 320 321 319 320 321 314 306 306 308 309 311 311
313 312 312 314 315 316 317 315 314 315 316 315 315 314 314 314 313 313 314 314 315 315 315 315 315 318 320 318 318 319 317 317 317 317 319 318 318 319 316 317 319 315 313 313 316 320 319 319 321 315 310 314 318 318 319 319 316 315 317 317 317 318 319 322 322 320 324 327 327 326 325 323 324 323 322 319 319 318 317 321 322 313 307 308 308 309 312 312
312 312 313 314 314 315 316 314 314 315 315 314 314 313 313 313 314 314 314 314 316 315 313 315 316 317 319 318 318 319 317 317 317 317 318 317 318 320 317 316 318 316 314 315 317 319 319 320 322 319 314 316 319 317 314 316 318 317 318 319 318 317 319 321 320 319 321 323 325 325 324 323 324 323 320 320 323 319 314 315 315 310 308 310 310 311 312 312
312 312 314 314 314 315 315 314 314 315 314 313 313 314 313 313 315 316 315 315 316 316 315 317 318 317 318 319 318 319 318 318 317 317 318 317 317 319 317 314 315 315 315 317 318 317 319 322 323 321 318 316 316 311 307 310 315 315 317 319 318 317 319 322 323 321 320 320 319 319 321 322 321 322 322 320 316 312 308 308 308 308 310 310 310 311 312 312
312 312 313 313 314 315 314 314 315 314 314 312 312 313 313 313 314 315 316 316 316 317 318 319 318 316 317 318 319 318 318 318 317 317 318 318 317 316 315 314 314 315 316 319 319 317 317 321 322 322 321 318 316 313 308 309 313 314 316 319 318 317 318 321 322 321 321 321 319 318 321 321 317 318 314 306 304 305 305 307 307 308 310 310 310 311 312 312
311 311 312 313 314 315 315 315 314 313 313 312 312 313 313 313 313 315 316 316 316 317 318 318 318 316 316 319 319 318 318 319 318 317 317 319 318 314 313 314 315 316 317 319 319 317 318 322 322 323 325 323 320 318 314 312 313 316 318 318 317 317 318 319 319 319 321 322 320 320 323 320 319 320 312 306 310 310 306 307 308 309 310 311 310 310 311 311
311 311 311 312 314 315 314 314 314 312 312 312 312 312 312 312 312 313 315 315 315 317 317 317 317 316 316 319 318 317 318 318 318 318 317 319 318 312 311 314 315 315 316 317 316 316 320 323 321 321 324 324 323 323 320 316 314 316 318 316 315 317 318 318 319 318 320 321 319 321 322 320 321 321 315 315 321 318 311 308 309 310 311 311 310 310 311 312
310 311 310 311 313 314 314 313 312 312 312 312 311 311 311 312 311 311 313 314 314 315 316 317 316 316 318 319 317 318 318 316 318 320 318 319 320 313 310 312 314 314 315 315 315 317 322 323 320 321 323 322 322 324 322 318 316 316 317 316 315 316 316 318 319 319 320 320 319 319 320 320 321 320 319 320 321 324 320 311 308 311 313 312 312 310 310 311
309 311 310 310 312 313 312 312 311 311 311 311 311 310 310 311 311 311 312 313 314 314 315 316 316 317 319 319 318 318 318 317 318 320 318 318 318 313 309 310 312 313 314 314 314 319 323 322 320 321 322 320 323 326 321 318 318 317 317 316 316 316 316 317 319 320 320 320 320 319 318 320 320 319 322 324 323 326 322 310 308 314 315 314 313 310 310 311
309 310 310 310 311 311 312 312 311 310 310 310 309 310 310 310 310 311 312 312 313 314 315 316 316 317 318 318 319 319 319 318 318 318 318 318 317 314 311 311 311 311 314 315 314 318 322 321 320 322 321 320 323 324 320 318 318 317 317 317 316 315 315 316 318 318 319 320 321 321 320 320 318 317 319 321 320 319 317 313 313 315 315 315 314 311 310 311
308 309 309 309 310 310 310 310 310 310 310 309 308 308 309 310 310 310 312 312 312 313 315 315 315 316 317 318 319 319 319 319 319 318 317 318 318 317 316 315 313 310 312 316 315 315 318 320 320 320 320 320 321 320 318 318 318 317 317 317 316 315 315 315 317 317 318 319 319 320 322 320 317 317 318 317 315 313 312 314 314 315 315 316 315 313 312 311
307 308 308 308 308 308 308 308 309 309 310 309 308 308 308 309 309 310 310 312 312 312 314 315 315 315 317 317 318 319 319 318 319 319 318 318 318 317 317 319 318 312 311 315 316 313 315 320 320 319 319 320 319 319 317 316 317 317 317 316 316 316 315 315 316 316 317 318 317 318 320 319 316 317 316 314 313 313 312 313 313 315 316 315 314 314 314 313
306 307 307 308 307 307 307 308 308 309 309 309 309 308 307 307 308 309 310 311 312 312 313 314 314 315 316 316 317 318 318 318 318 317 317 317 316 316 315 315 316 315 312 313 315 314 314 319 320 318 319 320 320 319 317 314 315 316 317 316 316 315 316 315 315 316 316 317 318 318 318 318 317 317 315 312 311 311 310 311 312 315 316 315 314 315 315 315
305 306 306 306 307 307 307 308 308 309 309 308 308 308 308 308 307 308 310 310 310 311 312 312 314 314 315 315 316 316 316 317 317 317 317 317 315 315 315 311 312 315 313 312 314 315 315 317 318 318 320 320 320 320 317 314 315 317 317 317 316 315 315 315 315 315 315 316 318 318 317 318 319 319 317 317 316 312 310 311 313 315 315 315 315 315 316 316
Wind_Speed
17 16 15 14 13 13 12 12 11 10 10 11 11 12 12 12 13 13 12 12 11 10 7 6 5 4 4 4 4 5 4 4 5 4 3 2 2 2 1 1 1 1 1 2 3 2 1 1 1 0 1 3 4 5 6 5 4 3 3 4 2 4 4 6 8 7 4 2 6 9 10 7 3 6 6 3 4 6 8 10 10 10 13 12 10 10 11 16
17 16 15 14 13 13 12 12 11 11 11 11 12 12 12 12 12 12 13 12 11 9 7 6 5 4 4 3 4 5 5 5 6 4 3 1 4 3 3 3 2 1 1 1 1 1 1 1 1 1 2 4 5 4 4 4 4 3 3 3 3 6 4 6 9 10 4 1 7 10 9 8 5 7 8 3 3 5 5 8 10 11 13 13 12 12 12 15
18 16 15 14 14 13 13 12 12 12 11 12 12 12 12 12 12 12 13 13 11 9 7 6 5 4 4 4 4 4 5 6 4 2 2 3 6 7 6 5 4 3 2 2 1 1 0 0 1 2 4 5 6 5 5 5 4 2 4 3 4 7 3 4 7 10 6 1 7 10 7 8 5 7 8 5 3 4 7 9 10 13 14 14 13 13 13 15
18 17 16 15 14 14 13 13 12 12 12 12 13 12 12 12 12 13 13 13 11 9 7 6 5 4 4 4 4 4 5 6 1 1 2 7 11 9 7 5 5 5 4 4 3 2 1 1 1 2 5 5 5 5 5 7 3 1 4 3 4 5 2 3 5 7 7 3 7 9 6 5 6 8 9 6 3 4 11 15 14 14 13 13 14 14 15 16
19 18 17 16 16 15 14 14 13 13 13 13 13 13 12 12 12 13 13 13 11 9 8 6 5 4 4 4 4 4 3 3 1 4 6 11 12 9 6 5 5 5 5 4 3 3 2 2 2 2 5 3 5 5 4 7 4 3 2 2 4 5 2 2 4 5 7 6 7 7 5 4 6 8 10 9 6 6 9 11 13 13 12 12 13 15 16 17
20 19 18 17 17 16 15 15 14 14 13 13 13 13 12 12 12 13 13 12 11 9 8 6 5 4 4 4 4 3 1 2 2 6 9 12 10 7 5 3 4 5 5 4 3 3 2 2 2 2 4 3 4 4 3 6 3 2 2 1 5 4 2 2 4 4 7 8 8 7 5 5 6 6 9 12 14 13 10 8 9 10 12 13 13 15 16 16
21 19 19 18 17 17 16 15 14 14 14 13 13 12 12 12 12 13 13 12 11 9 8 7 5 5 4 4 3 3 3 1 3 6 9 11 9 6 4 1 1 4 5 4 3 2 2 1 2 3 5 3 2 2 4 6 4 4 1 1 4 2 2 2 4 5 7 6 6 5 5 5 6 5 6 12 19 18 16 13 11 10 11 13 14 15 16 15
20 19 18 18 17 16 16 15 14 14 13 13 13 12 12 12 13 13 12 11 10 9 8 7 6 5 4 4 3 3 4 2 4 7 8 10 9 6 4 3 4 5 4 3 3 2 1 1 3 4 3 3 2 1 4 4 5 5 2 1 2 1 2 3 5 6 6 4 4 5 6 6 7 6 6 14 18 17 18 16 14 12 11 13 14 15 15 15
20 19 18 17 17 16 16 15 14 14 13 13 13 12 12 12 12 12 12 11 10 9 9 7 7 6 4 4 3 3 4 3 5 8 8 8 8 6 5 4 4 4 3 2 2 1 1 1 2 2 2 3 4 2 4 2 2 3 3 2 1 1 1 3 6 6 6 6 4 5 6 5 6 5 9 18 18 16 17 15 14 13 11 12 14 15 15 15
19 19 18 18 17 16 16 15 15 14 14 13 13 12 12 12 12 12 11 11 10 9 9 8 7 6 5 4 2 2 3 4 6 9 8 7 7 6 4 3 2 2 1 1 2 2 1 2 3 4 5 5 5 3 4 3 1 3 4 3 1 1 2 2 6 6 6 7 6 6 5 5 3 2 7 14 15 17 17 16 15 14 13 13 14 15 15 14
18 18 18 18 17 17 17 16 15 15 14 13 13 12 12 12 12 12 11 10 10 9 9 9 8 7 6 4 4 4 2 3 8 10 8 8 7 5 4 2 1 0 1 2 3 3 3 3 3 4 3 3 4 3 4 4 4 3 3 1 2 4 5 5 6 7 6 5 8 7 4 4 2 3 10 13 12 15 17 17 17 16 15 15 16 16 16 15
17 17 17 16 17 17 17 16 15 15 14 13 13 12 12 12 12 12 11 11 10 10 10 9 8 8 6 6 9 8 3 3 8 11 9 8 8 6 4 2 1 1 1 2 2 2 2 3 2 1 2 4 3 3 4 4 4 4 5 0 5 8 5 5 4 5 5 3 4 4 3 5 4 9 15 13 12 15 16 18 18 18 18 17 18 18 17 16
15 15 14 15 15 16 15 15 15 14 14 13 13 13 13 13 12 12 12 11 11 10 10 9 9 8 7 7 9 9 7 6 9 11 11 10 9 8 6 3 3 3 2 1 0 1 1 2 1 2 4 5 2 3 4 4 4 3 5 2 4 8 6 3 0 2 4 3 3 6 3 7 7 15 16 12 14 16 17 19 19 19 20 20 20 20 18 17
13 13 13 13 14 14 14 13 13 13 13 13 13 13 13 13 12 12 12 11 11 10 10 9 9 8 7 7 8 8 9 9 11 12 12 12 10 9 8 4 4 5 4 3 2 1 1 1 1 3 5 4 4 5 3 5 4 2 2 2 3 2 5 5 1 4 4 3 6 8 3 7 9 12 10 11 15 16 18 20 20 21 21 21 21 21 20 19
13 13 13 13 13 13 13 12 12 11 12 12 11 12 12 12 12 11 11 11 11 10 10 9 8 7 6 8 9 9 11 12 14 15 14 14 12 11 9 6 6 6 4 3 3 3 2 1 1 4 6 6 6 5 3 5 4 3 1 3 3 2 5 9 2 8 4 2 7 8 3 7 10 10 7 10 15 17 20 20 20 22 22 22 23 22 22 20
14 14 14 14 13 13 12 12 11 11 12 11 11 11 11 11 11 11 11 10 10 10 9 8 8 7 4 6 9 9 12 15 16 17 16 15 14 12 9 7 7 6 4 4 4 4 3 2 3 5 5 5 5 4 4 4 4 4 1 3 2 2 3 7 3 7 3 1 4 5 3 4 5 5 4 10 17 18 20 21 21 22 23 23 24 24 23 22
16 15 15 15 14 14 13 12 11 12 11 11 10 10 10 10 10 10 10 10 9 9 8 6 6 5 5 8 9 10 14 16 17 18 18 16 15 13 9 8 7 7 5 4 4 3 3 2 5 4 3 3 3 4 4 2 4 3 1 2 3 3 2 3 5 3 2 2 3 4 4 7 7 6 5 7 15 18 21 24 24 23 24 25 25 25 25 25
17 17 16 16 15 15 14 13 12 12 11 11 10 10 10 10 10 9 9 10 9 6 5 7 5 1 7 13 12 11 12 14 15 16 17 17 16 13 10 8 6 6 5 4 3 3 3 3 4 2 3 3 2 5 3 4 4 3 2 2 3 2 2 4 4 2 2 1 3 3 5 10 13 13 13 10 12 18 23 25 24 23 25 25 27 27 27 27
19 18 18 17 17 16 16 14 13 13 11 11 10 10 9 8 7 8 9 10 9 6 2 10 13 4 2 10 15 13 10 10 13 15 17 18 16 14 10 7 6 6 6 4 1 3 4 4 5 3 1 3 4 7 8 7 6 5 5 4 3 4 3 5 6 4 2 2 4 6 8 11 11 13 16 16 14 19 23 23 23 24 25 26 28 30 30 30
20 20 19 19 18 18 17 15 15 15 13 11 11 10 8 6 3 4 10 14 17 16 7 8 15 11 1 1 8 13 11 9 12 16 17 17 16 13 10 7 6 5 4 4 2 2 4 3 2 4 8 9 8 8 6 5 6 5 5 3 3 4 5 5 5 5 2 3 6 8 8 10 11 11 15 17 13 17 22 23 26 28 28 30 31 32 33 32
21 21 21 20 20 19 18 17 17 16 15 13 12 10 7 9 5 2 8 14 19 24 19 12 12 15 10 4 4 8 10 10 12 16 17 17 16 11 9 8 6 2 1 3 4 2 4 3 6 10 9 7 6 7 5 5 5 4 4 2 3 3 5 7 4 4 0 3 5 6 7 11 11 11 16 15 8 15 24 24 28 32 33 34 34 35 35 32
21 21 21 21 21 20 18 18 18 18 17 14 14 12 9 11 10 6 5 7 13 19 24 23 19 16 17 14 9 8 10 8 10 16 17 18 17 12 10 8 5 3 1 4 5 2 1 3 11 11 4 6 4 5 6 4 4 3 3 2 4 3 4 7 5 5 2 3 5 5 6 11 10 10 14 16 14 20 29 30 32 35 33 35 37 36 36 34
20 21 21 22 22 21 19 18 19 20 18 16 15 14 12 11 12 11 6 5 9 14 19 25 26 25 23 19 16 13 13 9 9 17 20 20 18 14 12 9 4 4 3 4 6 3 2 6 11 9 8 7 4 5 7 4 2 2 3 2 3 2 2 4 4 4 2 1 3 5 7 9 9 8 11 21 26 25 30 33 34 36 35 37 38 36 36 36
18 20 21 22 22 21 19 18 20 22 20 18 16 15 13 11 10 10 7 4 6 10 15 20 24 29 28 23 19 17 16 12 11 17 22 23 20 13 11 9 5 4 4 7 8 6 5 5 3 6 8 7 5 4 7 5 2 4 5 6 4 4 6 6 4 5 3 2 3 4 8 8 7 9 10 15 16 17 24 28 31 38 40 38 36 35 37 36
16 18 20 21 22 21 18 18 21 23 21 19 16 15 14 12 8 6 3 2 5 6 10 15 18 24 27 25 21 17 14 13 14 16 23 27 24 13 7 9 6 4 7 6 5 5 7 4 4 7 4 5 7 4 5 7 4 5 6 9 10 8 8 5 3 5 4 4 4 4 5 7 3 6 9 7 4 8 16 17 26 38 37 35 36 37 37 34
12 15 17 20 21 19 17 18 20 22 22 20 16 14 14 11 7 5 3 3 4 4 3 9 11 13 19 21 22 16 6 10 15 18 22 27 26 14 7 6 4 4 7 5 2 3 4 3 5 7 5 6 6 4 6 8 5 4 5 8 10 7 5 4 1 1 1 4 3 3 1 7 5 5 8 7 5 9 11 11 21 32 30 31 35 36 35 33
11 12 14 17 20 20 19 18 19 22 21 18 15 15 15 12 9 6 4 4 5 5 7 8 9 9 13 17 26 19 2 6 13 16 23 27 24 15 7 5 3 2 6 5 2 3 3 3 4 6 6 6 6 4 6 8 7 4 4 5 7 7 6 6 4 3 3 3 3 3 3 5 9 6 6 8 8 9 11 12 19 26 27 27 30 31 32 32
13 12 13 16 18 20 20 19 20 21 19 13 13 17 16 14 11 7 5 1 3 5 6 6 9 11 12 19 30 18 6 11 10 12 25 27 23 13 6 8 7 5 7 7 4 3 4 6 6 7 5 4 6 5 7 11 6 5 2 5 6 6 5 4 5 3 1 3 4 1 4 3 10 6 0 2 6 7 12 15 18 20 20 20 23 26 27 29
17 15 15 15 15 17 18 20 20 18 15 9 11 18 19 17 12 6 4 2 2 4 3 6 8 9 14 20 22 12 9 8 4 12 24 24 22 10 2 9 8 6 6 5 5 2 2 4 7 8 5 6 5 1 6 11 5 4 6 7 6 5 5 5 4 3 3 2 5 5 5 2 10 6 3 2 3 8 12 13 13 14 14 15 17 21 24 27
21 19 18 15 16 19 19 21 21 15 13 13 16 23 24 18 9 5 2 4 2 2 3 7 7 9 17 15 7 3 6 3 5 16 17 13 17 8 4 7 6 5 2 4 3 3 1 1 3 4 4 5 5 4 1 5 7 9 8 6 7 6 5 4 2 4 2 5 5 8 10 6 7 5 4 3 4 7 9 8 10 11 10 11 13 16 21 26
26 23 21 19 20 22 22 24 22 18 18 19 24 29 23 10 4 4 6 2 1 2 5 4 3 8 16 12 5 4 3 2 7 15 9 5 9 6 5 6 3 4 1 5 4 4 3 1 1 3 4 6 8 6 5 4 7 8 4 4 4 4 4 4 4 3 1 5 2 4 6 7 8 6 2 5 6 5 7 7 8 8 7 8 10 13 18 23
29 27 24 22 22 22 24 23 20 22 23 26 32 30 16 4 1 5 5 1 1 4 5 3 3 7 10 7 6 7 4 2 6 9 6 5 6 6 6 6 5 3 2 6 3 4 2 4 2 0 4 7 6 5 4 4 2 3 4 6 4 2 2 2 3 1 3 6 2 1 0 4 10 8 4 10 11 9 10 12 12 11 12 12 11 11 14 20
32 31 27 25 24 24 24 18 19 26 27 32 34 21 7 3 6 9 8 3 1 2 3 4 3 6 10 7 4 4 3 2 6 5 3 5 5 7 6 5 5 3 2 5 3 1 3 5 1 2 3 9 10 6 3 1 3 5 5 6 5 2 1 3 3 2 4 5 3 1 1 4 7 5 8 15 15 13 14 17 18 18 19 17 12 11 12 17
32 32 30 28 27 26 21 16 23 28 30 36 28 11 4 6 8 11 13 8 1 3 3 4 5 6 7 5 3 6 4 2 6 5 2 5 5 6 5 5 6 2 3 4 3 6 5 6 5 6 4 11 13 8 6 6 5 6 4 5 5 5 5 4 4 4 4 4 3 2 2 4 3 3 8 12 12 13 16 18 18 20 22 21 17 14 14 17
30 32 33 31 30 29 23 18 26 30 34 35 19 5 8 9 8 12 12 6 2 2 3 3 7 6 4 2 3 5 4 2 5 5 3 6 6 7 7 8 11 7 5 4 2 4 4 7 6 3 2 12 12 5 6 8 3 3 2 4 3 5 5 2 3 5 2 3 4 2 4 5 4 7 9 10 11 14 16 16 16 20 21 20 21 21 19 18
28 33 36 36 35 35 29 24 28 32 35 30 12 6 11 10 9 8 6 5 5 5 6 4 4 4 5 3 2 5 2 1 5 4 3 4 4 7 8 7 12 12 9 7 2 2 3 5 5 3 1 5 5 3 5 3 3 2 3 4 4 4 6 3 2 1 3 3 4 3 6 6 4 8 10 10 12 13 12 12 15 20 19 17 22 24 24 24
31 38 41 42 38 36 35 30 31 36 35 23 10 9 10 12 12 5 1 4 8 10 9 4 3 5 6 4 4 7 3 1 5 5 4 3 3 7 8 5 9 16 15 9 2 2 5 3 4 1 1 3 1 4 4 4 4 5 4 6 3 2 3 3 2 2 2 4 5 2 7 6 3 6 4 1 7 11 11 11 14 17 16 18 23 24 26 27
28 33 38 43 40 37 38 35 36 42 33 15 9 10 8 12 18 8 1 3 7 10 8 7 6 6 7 7 5 7 6 4 6 6 4 4 5 9 11 6 8 19 21 13 3 3 4 2 4 1 2 2 3 4 2 5 3 4 4 6 4 2 2 2 2 2 1 4 5 2 4 5 6 7 3 2 8 12 13 11 9 12 16 22 25 23 24 26
18 15 18 31 40 41 40 38 42 42 25 10 9 10 9 13 17 10 2 1 4 7 8 9 7 4 5 8 6 6 9 8 8 7 5 5 6 7 14 12 8 14 21 17 7 2 3 3 4 1 1 1 2 2 4 1 2 3 2 3 2 2 3 3 3 3 3 2 4 3 4 6 6 6 7 11 12 12 11 8 7 12 19 24 25 23 23 25
16 9 7 16 27 34 39 41 41 30 13 8 10 10 10 12 11 11 11 7 2 4 6 7 7 5 5 7 4 5 8 7 8 8 5 7 6 5 10 13 5 6 16 17 9 1 3 3 4 2 3 1 2 4 8 10 7 4 4 5 3 1 1 1 1 2 3 2 2 3 7 9 5 4 8 11 10 9 10 9 8 12 15 17 21 23 24 25
15 7 5 10 13 22 37 36 24 14 7 6 9 10 11 9 5 9 18 15 6 4 4 4 5 5 5 6 4 3 6 5 6 7 4 7 8 5 9 16 12 9 9 9 8 5 4 3 4 2 1 4 5 4 5 8 8 8 8 9 10 7 4 2 3 2 3 3 4 3 8 13 6 5 7 8 7 7 8 8 9 12 13 13 16 19 22 23
15 5 3 9 10 19 32 22 9 10 8 8 13 10 7 6 5 7 13 16 11 6 3 2 4 6 5 6 5 5 7 5 6 7 5 9 12 7 10 21 23 21 14 7 8 8 5 3 3 3 4 6 6 3 2 2 1 2 3 5 6 6 6 6 6 4 3 2 2 4 5 13 5 4 5 6 6 7 7 8 10 13 14 13 13 13 18 22
15 8 4 7 12 24 26 10 5 10 7 9 15 11 5 5 6 5 7 12 11 7 6 4 2 6 6 4 5 6 8 6 7 10 8 8 11 9 11 22 24 20 13 4 3 4 5 3 3 3 3 3 4 3 2 3 3 1 1 2 6 8 9 7 4 4 4 5 4 3 7 12 2 2 3 4 7 10 11 12 13 15 15 13 12 11 15 21
12 10 8 6 14 26 21 6 6 10 7 9 10 10 10 6 5 7 8 11 11 6 6 7 4 6 5 3 5 8 10 8 8 13 10 5 6 7 14 26 24 15 11 8 9 11 7 3 4 2 3 4 3 3 1 1 1 3 4 5 8 11 9 2 1 3 2 9 11 6 11 11 2 2 2 3 5 8 12 13 14 16 16 13 11 9 13 20
9 7 9 12 20 28 19 7 6 6 9 12 8 10 13 7 7 14 11 9 11 8 6 8 7 6 4 3 5 7 11 12 9 10 9 6 3 2 13 27 25 17 14 12 15 18 10 4 7 7 7 9 8 6 5 4 3 2 4 7 9 12 12 7 3 3 7 10 10 10 14 8 3 4 4 4 5 7 9 10 12 16 16 14 12 10 12 18
8 5 5 11 22 28 23 17 11 4 5 10 7 8 13 9 9 15 13 8 11 12 9 7 4 5 4 4 6 6 10 14 10 5 5 7 4 0 9 23 26 23 15 8 13 14 4 2 10 13 13 15 14 8 4 8 8 8 11 14 14 15 16 11 6 8 9 4 6 16 21 12 5 5 5 6 6 6 8 8 12 15 14 13 13 11 12 16
7 5 5 7 12 16 16 15 12 5 4 8 5 3 11 13 8 7 11 12 12 13 10 7 5 6 5 7 9 9 10 11 8 5 5 7 3 2 3 12 18 22 14 8 14 12 2 3 13 16 19 20 16 8 8 12 14 16 17 17 17 17 16 13 14 16 9 5 11 20 18 16 15 9 8 9 7 6 8 10 12 11 9 11 13 13 13 16
7 4 8 12 8 6 9 11 11 8 7 8 4 1 6 13 11 7 10 13 12 11 7 6 9 12 12 13 11 9 9 8 7 9 9 7 3 1 1 3 9 16 13 8 12 9 2 7 13 14 19 22 14 7 10 12 14 15 18 19 20 19 19 20 24 23 13 10 18 13 10 17 22 14 11 10 8 10 13 12 10 9 10 13 14 14 15 17
11 6 6 11 7 5 12 16 13 10 8 7 4 4 4 9 13 11 8 5 7 10 10 9 14 16 17 16 12 10 11 9 9 10 10 9 6 4 3 3 6 12 11 7 7 6 4 7 12 12 14 20 17 10 10 12 11 11 15 19 20 21 24 26 28 25 19 20 24 10 6 18 19 11 13 17 20 21 16 12 14 16 18 18 17 19 19 18
13 8 5 7 6 4 8 12 9 7 9 8 5 5 5 8 12 10 7 7 6 8 12 15 18 16 15 16 14 13 13 12 14 14 12 11 8 5 6 6 4 7 9 6 4 5 6 8 9 7 7 15 17 12 10 10 10 10 12 15 18 22 26 27 26 21 17 22 24 12 11 19 11 9 12 17 22 19 13 15 21 22 23 22 21 23 23 22
21 15 7 3 4 5 5 6 6 5 6 7 7 6 5 9 13 8 5 11 12 8 9 16 20 15 11 14 16 17 19 18 18 16 11 10 11 9 7 4 3 5 8 8 4 5 6 4 2 4 6 13 16 14 12 9 7 8 11 16 22 25 23 21 20 18 18 21 19 11 15 16 4 8 10 11 12 12 12 18 21 23 27 26 25 27 26 26
28 23 15 5 2 5 6 4 5 6 5 6 9 10 8 10 12 8 3 8 16 20 17 14 14 10 8 13 16 19 22 21 19 19 15 12 14 13 8 4 5 6 8 6 2 3 6 5 3 5 8 13 15 13 11 7 4 8 14 23 28 24 17 13 16 19 20 19 14 14 19 15 4 6 9 8 8 11 15 21 26 27 30 30 29 30 29 30
Wind_Direction
202 203 204 204 204 205 206 208 211 214 214 211 204 199 198 195 193 193 193 193 192 194 199 205 212 222 226 229 232 251 264 289 315 312 319 297 202 196 197 186 183 188 236 231 197 197 246 302 278 17 125 111 82 78 81 73 84 92 99 93 144 176 194 188 179 187 165 200 198 178 178 170 167 178 169 167 181 191 195 203 214 220 223 237 244 233 221 209
206 207 208 208 208 208 208 211 215 217 217 211 204 201 201 199 197 195 195 194 193 197 204 208 214 226 236 239 243 259 268 295 309 297 303 251 184 173 142 120 103 84 25 324 212 224 273 274 247 102 122 103 67 69 82 53 59 74 104 100 193 193 205 189 175 187 173 40 177 169 181 183 178 180 176 197 215 192 203 220 221 226 229 232 232 225 220 210
210 212 212 212 211 211 211 214 218 220 218 210 205 204 203 201 200 198 196 194 194 200 206 211 219 231 242 247 254 263 279 301 301 288 299 172 155 138 120 102 79 62 41 39 54 33 342 176 101 95 98 91 61 71 74 40 46 56 95 96 230 209 219 199 188 198 204 237 166 165 181 189 191 185 186 208 216 209 224 226 220 225 231 230 224 220 221 215
213 215 216 215 214 214 215 217 220 220 216 209 206 206 206 204 202 201 198 195 198 203 208 214 222 233 247 253 258 268 295 315 288 147 137 146 140 131 112 89 70 55 38 39 46 47 63 89 91 86 84 78 42 62 51 27 37 51 100 148 215 184 173 206 201 207 209 211 172 167 165 190 206 195 199 193 173 252 240 234 234 237 242 237 229 224 222 220
214 216 216 215 216 217 218 219 220 217 212 208 206 209 209 207 206 202 199 198 202 206 211 218 227 238 250 253 259 269 311 357 125 139 142 145 139 134 117 87 66 50 35 29 30 49 64 66 86 79 71 59 27 50 33 23 63 74 48 216 164 141 117 183 184 191 199 193 172 164 158 195 201 200 213 199 194 243 246 244 246 248 252 248 240 232 224 222
213 215 215 215 216 218 220 220 218 212 208 207 209 210 208 208 207 203 200 202 206 211 215 219 230 242 250 252 261 264 298 32 156 148 149 155 147 146 137 94 61 38 19 15 20 47 60 55 79 72 60 51 25 53 42 15 52 91 359 214 149 142 62 153 179 179 179 176 174 177 191 203 190 214 232 220 227 243 252 254 251 253 247 243 240 233 228 225
212 213 215 216 217 218 219 217 214 210 206 207 209 210 208 207 204 202 202 205 210 214 218 224 236 245 251 257 262 259 274 308 187 165 161 165 161 167 172 141 27 1 360 4 2 23 37 34 82 89 76 68 49 63 33 17 54 99 95 129 167 211 331 185 187 173 168 177 195 202 215 218 207 223 250 241 244 249 254 257 257 260 246 236 231 226 227 225
212 213 215 216 217 216 213 211 210 208 207 207 207 207 206 206 204 202 204 208 213 217 223 229 237 245 253 261 268 271 272 268 202 182 172 175 179 187 204 248 299 322 336 339 340 2 21 58 112 109 86 79 116 81 21 29 46 62 135 189 167 213 312 205 194 187 189 210 231 236 233 236 227 229 258 253 254 253 252 256 258 260 248 232 223 221 224 223
210 210 211 211 211 209 207 207 206 206 206 205 205 204 203 204 204 204 207 211 215 221 228 234 242 248 254 258 276 288 262 231 206 192 179 184 191 200 230 270 297 315 324 317 333 354 26 121 137 138 138 130 122 78 38 52 3 39 131 158 135 92 4 201 205 204 215 232 238 243 247 251 237 244 265 254 251 252 249 252 254 253 244 228 219 219 221 226
206 203 204 205 204 203 203 203 203 203 202 202 203 201 202 204 205 207 210 214 219 226 233 238 244 248 254 257 254 263 249 225 204 194 188 192 196 212 244 277 306 327 350 347 34 44 99 132 130 126 130 131 117 69 39 67 107 82 100 117 118 299 323 258 231 232 233 245 240 229 249 263 225 200 258 251 243 243 242 243 245 243 237 228 222 221 223 232
204 201 201 201 201 201 201 201 201 199 198 199 200 201 203 205 206 209 213 218 223 230 236 241 246 249 254 250 218 209 251 240 203 191 192 198 205 225 239 242 293 47 76 73 76 74 109 123 122 130 125 127 120 73 57 83 105 76 64 158 311 332 301 261 244 242 230 248 245 225 253 275 159 187 245 247 239 236 235 235 237 235 233 229 227 229 233 240
205 203 202 202 202 200 199 200 200 199 198 198 199 201 204 207 209 212 217 221 226 232 238 243 246 248 251 248 239 234 257 246 197 192 197 202 212 222 219 205 208 185 127 79 90 83 108 126 114 120 118 137 141 78 83 89 87 60 55 313 309 353 330 256 243 236 204 225 236 182 278 279 201 228 241 240 231 227 226 229 232 232 231 231 233 237 239 243
209 206 203 203 205 204 203 201 201 200 200 199 200 202 206 210 212 216 220 223 228 233 237 243 247 250 252 251 251 244 241 231 202 199 202 205 214 216 213 214 219 210 205 228 185 89 125 152 94 107 121 125 125 107 109 75 71 59 49 50 326 359 332 271 286 208 182 202 168 138 262 276 243 242 241 235 225 218 220 224 228 229 231 233 234 239 240 242
215 213 209 208 209 209 208 206 205 204 204 204 202 204 209 212 215 218 222 225 228 232 236 242 247 250 250 250 256 248 235 225 209 206 207 209 213 214 216 230 228 220 232 248 241 235 174 129 88 107 111 104 113 118 82 27 42 36 12 21 22 8 281 293 31 150 157 214 173 144 239 268 266 263 248 234 223 215 222 226 228 229 230 233 235 238 239 241
217 219 218 217 216 214 213 211 210 211 211 210 209 211 214 216 218 221 224 227 228 232 235 239 245 247 254 256 254 247 235 225 215 211 210 211 216 217 218 227 224 220 234 242 227 222 212 182 124 93 93 104 115 105 28 2 20 30 342 306 354 164 264 309 269 171 158 214 167 151 241 268 270 276 260 225 215 215 227 232 232 232 233 233 236 237 239 240
218 219 222 224 223 222 221 219 218 219 219 219 219 219 221 225 225 225 228 230 230 233 234 239 241 235 253 262 251 246 237 226 219 216 212 212 216 219 220 226 221 218 230 237 229 217 218 201 107 85 93 112 111 87 45 14 347 359 79 243 270 168 268 320 290 197 178 97 173 188 244 270 273 292 271 216 212 217 226 236 236 235 236 234 236 238 239 240
225 223 225 227 227 227 225 225 227 228 229 230 229 228 229 232 232 232 232 231 232 232 231 235 241 239 250 255 249 244 235 225 222 218 214 213 216 218 221 220 213 217 222 215 216 202 194 151 116 97 73 78 90 92 64 338 291 310 17 234 240 197 209 299 314 262 177 123 219 227 238 252 261 288 292 222 216 220 226 239 241 238 239 237 237 238 239 240
231 229 230 230 231 231 228 229 231 232 236 237 238 237 235 237 237 236 234 233 227 224 236 227 209 256 250 237 232 233 233 227 222 217 213 212 213 215 217 213 208 211 201 187 194 164 142 100 101 91 29 25 59 106 146 227 210 203 187 200 249 237 215 248 288 279 153 175 235 223 247 257 266 275 274 255 227 226 234 243 244 243 242 239 239 239 240 240
234 234 234 234 235 235 233 232 233 235 237 238 239 237 236 237 237 238 236 229 212 192 226 217 198 166 232 225 224 229 235 226 216 213 212 210 209 210 207 202 194 181 160 152 176 137 126 88 80 92 227 236 200 166 192 201 160 161 172 156 184 222 250 236 250 262 185 211 241 225 238 250 260 269 267 259 239 233 243 248 247 247 245 243 242 241 241 241
239 239 238 237 236 236 236 234 236 237 236 238 236 229 222 201 186 243 228 223 222 215 220 221 207 203 182 196 220 224 225 216 210 207 206 206 205 200 191 178 163 156 146 152 176 122 120 122 135 197 216 215 204 189 182 150 122 118 130 140 187 211 268 259 255 287 198 190 250 234 235 252 254 261 265 261 240 233 244 248 248 248 246 245 244 243 242 242
240 241 241 241 239 238 238 237 237 235 234 235 230 221 206 188 179 244 222 228 238 231 232 242 225 217 228 252 230 213 208 202 203 202 200 200 196 188 180 164 138 144 216 133 122 98 112 153 217 223 215 200 190 169 138 113 100 88 124 195 254 212 251 254 245 300 285 179 266 263 256 260 253 254 265 264 232 232 242 242 247 249 248 247 246 245 243 241
240 241 242 243 242 241 241 240 239 236 233 230 225 219 214 213 218 230 233 253 257 244 238 238 236 230 230 237 241 218 199 191 197 199 194 189 187 187 177 157 136 165 181 107 103 73 113 218 237 226 158 102 109 131 132 127 103 86 115 191 267 244 268 275 277 327 8 189 271 308 284 266 259 256 262 258 241 243 249 247 250 252 249 248 247 246 244 240
239 240 239 241 242 242 242 241 240 238 232 226 224 220 220 229 229 232 252 293 278 259 242 236 237 235 228 230 234 221 203 196 196 194 191 187 185 186 174 155 139 138 140 165 160 155 188 248 248 210 146 117 89 97 113 110 116 159 160 182 245 243 263 277 291 328 357 204 272 309 291 275 266 259 256 252 247 249 254 253 255 255 252 252 252 251 247 242
238 239 239 240 240 240 240 239 238 237 233 226 225 221 220 229 230 236 249 282 288 262 246 241 237 235 231 228 229 220 209 211 207 194 193 188 178 175 179 164 132 126 180 197 183 190 221 254 246 148 155 156 124 106 126 142 237 236 203 200 215 218 220 237 291 324 333 346 11 342 297 276 251 247 251 253 251 254 256 255 255 256 254 253 253 252 249 245
234 237 239 238 239 239 236 235 233 234 233 228 226 218 216 221 222 233 236 286 291 264 250 241 234 237 232 226 223 213 208 220 219 204 197 192 182 167 168 167 149 172 203 193 188 240 251 231 127 111 133 150 137 153 173 170 212 267 228 205 211 215 222 244 334 3 353 322 347 20 300 278 261 246 257 270 283 268 259 250 250 254 253 250 248 247 245 242
234 238 239 236 237 234 227 228 231 233 232 230 224 210 208 203 187 190 145 40 287 240 204 211 215 229 221 212 202 189 209 236 218 207 198 196 192 174 150 157 147 192 187 158 179 252 243 191 126 121 136 149 158 203 215 179 169 266 247 204 207 202 204 229 200 63 278 262 295 59 231 279 288 231 240 252 260 270 267 255 252 253 252 246 245 245 242 239
237 241 242 239 236 227 219 221 229 231 228 228 219 199 192 180 159 161 122 18 281 189 151 181 185 191 198 194 184 176 203 196 184 199 195 191 194 183 173 168 122 187 167 132 233 253 157 139 97 117 128 139 168 214 219 171 152 237 250 169 173 173 192 204 172 194 241 264 316 49 118 281 284 246 226 225 231 269 276 266 262 258 253 249 247 244 241 239
239 243 246 243 238 228 219 219 227 227 223 224 209 186 173 162 156 138 111 323 261 146 143 176 168 176 180 178 180 174 136 143 148 192 189 186 191 187 197 196 166 182 173 149 220 262 136 165 176 154 140 166 193 217 187 157 158 247 207 124 139 151 162 142 135 185 315 357 306 283 131 264 278 266 21 223 219 249 260 254 259 261 258 256 252 247 242 240
236 237 243 245 239 230 219 217 224 224 216 207 181 171 159 152 150 108 87 235 207 115 137 160 154 165 157 162 179 170 132 143 131 175 180 184 190 185 200 198 171 159 187 193 217 250 96 183 192 162 157 199 205 271 176 164 179 192 132 96 82 81 82 82 106 125 51 320 244 208 167 230 277 259 112 81 200 224 244 248 256 267 268 264 259 250 242 237
234 232 237 237 228 221 214 212 214 207 190 175 162 160 155 149 139 104 153 231 205 107 125 151 161 163 151 151 185 174 133 135 116 148 164 179 185 178 110 159 149 122 193 290 250 244 355 99 182 171 177 177 135 61 88 152 145 136 115 74 59 41 42 53 48 82 54 278 227 196 185 180 277 275 148 176 210 212 230 247 269 277 270 268 269 255 241 234
233 228 229 231 225 220 213 209 203 186 173 165 159 156 152 141 106 151 197 241 354 135 121 146 176 154 155 155 174 187 141 76 135 147 151 156 171 166 118 137 124 90 343 292 277 311 332 129 219 206 172 132 106 67 32 72 120 122 93 84 79 357 10 27 354 54 183 261 237 214 198 178 236 257 198 246 264 236 220 233 262 271 264 278 286 266 246 235
233 226 223 229 231 225 220 214 193 173 165 160 160 159 152 132 132 213 217 44 15 199 153 163 189 154 164 167 173 176 142 117 164 160 153 143 164 183 182 184 166 127 269 240 245 335 274 228 257 214 181 162 126 81 41 21 60 101 95 111 103 340 347 343 314 60 230 257 281 318 283 214 242 251 253 265 268 248 229 231 242 250 264 281 288 273 251 234
235 227 220 224 230 225 224 219 186 169 162 161 162 158 141 166 197 214 219 195 224 227 122 116 130 146 158 163 184 169 121 173 181 167 158 149 171 205 222 223 180 157 205 189 183 240 266 294 294 126 224 195 172 155 160 214 189 165 143 142 146 140 188 254 266 273 267 270 292 325 178 251 273 273 235 243 251 247 243 247 251 254 263 272 275 271 256 236
235 230 221 220 227 226 225 212 183 173 165 162 161 149 158 197 201 210 216 213 228 15 52 99 110 130 157 171 207 171 147 223 178 151 146 145 166 212 227 236 213 166 100 142 175 183 221 285 203 176 198 186 187 189 165 138 159 185 158 143 161 161 177 213 210 223 259 287 298 281 209 209 231 264 237 244 269 273 260 256 257 258 257 256 256 254 248 237
232 234 225 219 221 222 220 201 182 177 169 162 157 159 186 198 211 214 215 200 144 35 28 70 106 127 187 269 285 195 176 227 175 144 161 170 187 201 193 208 203 174 138 178 218 163 204 269 236 224 160 168 183 189 126 108 138 220 123 122 190 185 164 181 202 183 178 300 293 227 228 221 217 266 265 261 279 276 263 257 255 256 253 247 246 243 239 236
232 234 226 218 217 218 217 199 181 179 173 163 159 196 196 208 215 208 201 160 156 140 108 81 89 129 199 230 272 228 219 99 158 156 195 202 225 207 199 213 195 182 181 182 181 136 170 277 286 344 35 171 187 168 126 129 182 168 135 176 208 170 133 125 250 93 91 266 268 197 245 285 306 278 262 247 257 263 262 258 249 250 251 245 242 238 235 233
229 225 217 215 218 218 215 201 182 179 179 173 183 201 195 217 219 202 133 142 143 137 136 170 184 160 187 195 205 210 204 91 161 183 199 191 251 212 204 229 189 189 199 187 186 196 169 260 297 74 195 257 19 97 74 42 109 126 180 199 166 95 95 105 238 348 50 256 267 208 246 279 288 273 290 228 251 260 258 250 244 246 246 241 239 237 235 233
221 216 211 215 220 219 214 205 186 179 180 181 210 214 207 222 222 215 89 121 136 145 168 205 195 167 181 191 196 188 179 172 177 191 188 183 245 210 186 205 197 196 201 190 203 243 156 242 295 68 199 278 38 116 93 18 63 124 177 182 135 145 211 122 176 228 195 251 278 274 266 266 219 231 276 198 218 240 249 248 246 243 237 237 238 235 233 231
220 218 217 219 219 219 217 206 189 181 181 183 200 211 221 226 224 224 261 269 171 172 195 212 203 178 175 179 170 170 185 187 172 180 189 188 232 208 180 192 202 197 194 182 190 241 139 204 269 338 259 314 37 167 181 187 14 54 109 161 128 139 185 164 163 185 174 234 283 308 300 269 223 201 211 222 227 233 244 253 249 243 239 239 239 235 233 231
220 225 252 230 221 221 217 203 189 184 189 199 195 202 215 222 223 224 236 249 236 198 216 220 203 182 179 181 165 169 194 195 172 184 206 193 214 238 191 183 167 168 181 180 189 176 117 203 243 325 337 213 194 209 190 182 177 162 162 177 183 117 112 172 192 130 130 159 232 283 282 268 238 180 202 224 238 236 237 243 244 249 252 250 247 242 238 234
205 208 249 224 221 218 206 195 187 191 202 204 210 215 212 218 219 214 224 234 249 256 248 240 209 190 172 181 195 178 176 185 184 194 227 206 210 244 199 178 157 135 149 174 201 194 165 192 195 185 256 215 222 247 218 197 186 184 188 189 188 172 140 174 239 198 135 181 188 188 270 268 236 176 203 219 229 230 233 239 247 260 267 265 260 250 241 238
195 207 236 195 197 198 193 189 187 196 200 206 215 215 197 207 221 204 211 220 232 254 267 271 221 205 183 177 188 165 159 179 190 194 226 219 214 227 195 179 166 154 151 169 201 189 148 117 162 201 220 223 240 272 253 225 166 155 201 196 178 171 168 182 217 209 156 222 183 118 267 272 251 160 199 221 237 249 251 245 252 266 270 270 271 257 241 238
191 201 198 178 191 191 187 190 202 195 208 219 216 222 211 196 204 193 195 209 216 222 231 247 217 210 216 181 161 164 176 192 194 200 222 227 223 230 193 177 166 157 157 166 189 157 118 126 198 248 306 309 306 323 21 50 60 69 263 183 169 194 198 186 199 181 154 205 189 126 254 262 274 115 222 255 277 276 267 255 255 266 271 270 271 263 244 237
199 197 187 178 196 194 189 188 197 199 217 214 212 226 232 228 204 197 198 205 208 201 215 236 231 217 224 161 155 180 187 195 207 209 215 224 227 225 191 180 172 166 179 186 172 163 161 183 184 190 305 309 312 309 320 40 156 207 222 196 193 200 191 157 88 114 190 215 187 182 246 250 279 335 285 309 308 286 269 259 254 261 269 269 266 264 250 240
202 204 200 197 196 197 203 213 197 196 208 210 213 214 220 239 224 218 222 217 217 212 213 235 228 209 213 175 179 193 193 206 221 208 208 228 247 222 192 186 181 186 201 194 171 166 169 184 173 184 229 237 238 235 217 191 169 200 207 193 199 198 187 189 186 176 230 220 176 196 240 250 337 318 296 311 306 290 276 263 249 251 261 268 266 259 250 242
187 201 206 198 197 203 216 222 214 221 208 210 222 210 212 228 223 220 226 231 236 231 230 251 225 183 196 189 197 211 208 220 230 195 194 220 227 304 194 191 192 199 205 190 165 162 150 184 188 200 216 227 240 242 161 133 154 204 206 192 198 203 195 194 198 211 222 191 179 222 232 239 264 260 260 265 257 267 280 264 246 247 256 268 270 261 249 246
192 191 179 180 200 216 227 218 208 219 198 193 207 200 209 222 230 214 208 215 231 228 229 250 225 199 208 200 210 224 215 221 230 217 215 212 209 344 198 191 202 205 203 186 169 159 96 221 206 213 221 230 240 226 160 153 175 200 202 195 201 203 195 195 211 218 197 149 235 236 224 236 246 226 223 244 241 251 261 251 248 256 269 278 276 264 249 244
219 218 190 182 186 213 223 209 195 194 183 178 200 238 205 217 223 209 201 212 222 214 213 239 227 223 224 215 220 229 216 215 221 221 229 216 172 46 192 194 218 208 196 185 179 162 144 220 217 218 225 234 236 201 179 183 187 197 198 198 201 197 195 202 216 220 194 194 240 232 178 225 240 224 217 225 216 226 235 238 253 273 278 277 276 268 255 244
228 254 218 194 194 201 207 207 200 199 197 177 188 223 209 215 223 219 205 201 213 208 203 222 229 226 226 225 227 228 221 221 221 218 225 219 188 156 186 219 224 205 188 178 189 176 163 218 224 215 223 238 235 211 195 197 197 201 202 202 199 198 202 207 216 219 207 220 240 230 195 243 243 216 216 222 222 231 240 248 258 264 264 265 265 264 260 251
221 236 225 199 217 222 198 195 186 198 213 198 197 215 203 216 228 227 210 196 207 206 200 220 233 226 221 228 229 231 229 226 229 228 221 219 215 192 200 209 184 181 187 190 200 190 188 219 223 197 216 243 238 225 210 202 203 206 209 211 207 205 208 211 217 217 212 229 241 241 266 268 247 181 203 218 223 233 245 245 246 250 253 253 253 255 258 259
223 225 222 197 217 209 183 173 164 181 208 197 204 210 194 218 223 218 220 220 223 223 200 217 234 234 227 232 230 234 237 232 237 242 231 222 226 219 214 212 154 157 188 197 186 171 190 222 195 150 217 241 234 222 212 207 212 217 219 218 214 213 212 211 214 212 208 223 233 234 251 257 218 149 177 193 208 221 229 232 236 242 244 245 246 249 254 259
224 225 225 224 238 204 187 174 171 190 206 193 201 206 204 220 216 196 221 233 226 230 226 221 235 239 232 236 232 233 240 245 255 264 266 257 247 243 243 219 174 168 179 188 181 160 180 203 201 184 217 240 235 215 195 184 205 227 226 221 218 216 208 204 217 216 210 212 214 219 232 233 161 141 178 185 204 215 222 229 233 237 240 241 244 248 254 258